This is the latest recevied weather packets stored in our database for station/object KO4APQ. If no packets are shown the sender has not sent any weather packets the latest 10 day(s).
| Time | Temp. | Humidity | Pressure | Rain* | Wind** | Luminosity | Snow |
|---|---|---|---|---|---|---|---|
| 1788135918 | 78° F | 70% | 763.4 mmHg | 0 in | - | 0 W/m² | - |
| 1788135613 | 79° F | 68% | 763.3 mmHg | 0 in | - | 0 W/m² | - |
| 1788135309 | 80° F | 67% | 763.3 mmHg | 0 in | - | 1 W/m² | - |
| 1788135005 | 80° F | 66% | 763.3 mmHg | 0 in | - | 2 W/m² | - |
| 1788134701 | 81° F | 64% | 763.3 mmHg | 0 in | - | 3 W/m² | - |
| 1788134399 | 82° F | 63% | 763.5 mmHg | 0 in | - | 6 W/m² | - |
| 1788134094 | 83° F | 60% | 763.3 mmHg | 0 in | - | 9 W/m² | - |
| 1788133789 | 84° F | 59% | 763 mmHg | 0 in | - | 14 W/m² | - |
| 1788133484 | 85° F | 58% | 763.3 mmHg | 0 in | - | 18 W/m² | - |
| 1788133180 | 85° F | 56% | 763.1 mmHg | 0 in | - | 23 W/m² | - |
| 1788132875 | 86° F | 55% | 763.1 mmHg | 0 in | - | 28 W/m² | - |
| 1788132571 | 86° F | 54% | 763.2 mmHg | 0 in | - | 36 W/m² | - |
| 1788132267 | 87° F | 52% | 763.1 mmHg | 0 in | - | 43 W/m² | - |
| 1788131963 | 87° F | 52% | 763.3 mmHg | 0 in | - | 52 W/m² | - |
| 1788131657 | 87° F | 51% | 763.2 mmHg | 0 in | - | 60 W/m² | - |
| 1788131357 | 88° F | 50% | 763.3 mmHg | 0 in | - | 70 W/m² | - |
| 1788131053 | 88° F | 50% | 763.3 mmHg | 0 in | - | 81 W/m² | - |
| 1788130752 | 88° F | 50% | 763.2 mmHg | 0 in | - | 92 W/m² | - |
| 1788130448 | 88° F | 50% | 763.3 mmHg | 0 in | - | 104 W/m² | - |
| 1788130142 | 88° F | 49% | 763 mmHg | 0 in | - | 116 W/m² | - |
| 1788129841 | 88° F | 48% | 763.2 mmHg | 0 in | - | 130 W/m² | - |
| 1788129538 | 89° F | 49% | 763 mmHg | 0 in | - | 145 W/m² | - |
| 1788129234 | 89° F | 48% | 763.1 mmHg | 0 in | - | 159 W/m² | - |
| 1788128933 | 89° F | 48% | 763 mmHg | 0 in | - | 176 W/m² | - |
| 1788128628 | 89° F | 49% | 763.1 mmHg | 0 in | - | 191 W/m² | - |
* Rain latest hour (hover to see other rain measurements)
** Current wind speed in m/s (hover to see current wind gust speed)